www.pogodaiklimat.ru

Погода и климат >> Архив погоды >> Украина >> Киев


АРХИВ ПОГОДЫ в Киеве

Время (UTC), дата Ветер
(напр.,м/с)
 
Видим.   Явления Облачность Т
(С)
Тd
(С)
f
(%)
Тe
(С)
Тes
(С)
Комфортность P
(гПа)
Po
(гПа)
Тmin
(С)
Tmax
(С)
R
(мм)
S
(см)
21 14.02 С 5 4000 м дымка 8/8 300 м
[Frnb]
-0.7 -2.6 87 -7 -7 по сезону 1023.0 1001.8
00 15.02 С 3 4000 м дымка 9/9 400 м
[Sc]
+0.3 -1.3 89 -4 -4 по сезону 1024.4 1003.3
03 15.02 С 3 4000 м дымка 8/8 330 м
[Cb cap]
-0.3 -2.1 88 -5 -5 по сезону 1025.4 1004.2
06 15.02 С 5 20 км 6/6 300 м
[Sc]
-0.6 -3.1 83 -7 -7 по сезону 1027.1 1005.8 -1.4 20
09 15.02 СВ 6 20 км ясно +0.9 -3.7 71 -5 -3 по сезону 1028.9 1007.7
12 15.02 С 5 20 км 3/0
[Ac lent]
+2.1 -6.0 55 -3 -2 по сезону 1029.7 1008.6
15 15.02 СВ 4 20 км ясно +1.3 -7.3 53 -3 -3 по сезону 1031.5 1010.3
18 15.02 С 3 20 км ясно -0.6 -7.0 62 -5 -5 по сезону 1033.8 1012.4 +2.1
21 15.02 С 3 20 км ясно -1.9 -8.1 63 -6 -6 по сезону 1034.9 1013.4
00 16.02 СЗ 2 20 км ясно -3.5 -8.7 67 -7 -7 по сезону 1035.5 1013.8
03 16.02 СЗ 2 20 км ясно -5.1 -9.2 73 -9 -9 по сезону 1035.4 1013.6
06 16.02 СЗ 2 20 км 3/0
[Ci fib]
-5.5 -9.3 75 -10 -9 по сезону 1035.0 1013.2 -5.7 18
09 16.02 СЗ 2 20 км 8/0
[Cc]
+0.1 -6.8 60 -3 +1 по сезону 1033.8 1012.5
12 16.02 СЗ 2 20 км 8/0
[Ac trans Cc]
+2.8 -7.5 47 +1 +3 тепло 1032.1 1011.0
15 16.02 ЮЗ 3 20 км 9/0
[Ac und]
+0.5 -5.3 65 -4 -4 по сезону 1030.9 1009.6
18 16.02 ЮЗ 2 20 км 4/0
[Ac trans]
-2.9 -7.1 73 -7 -7 по сезону 1030.0 1008.5 +3.0
21 16.02 ЮЗ 3 20 км 8/0
[Ac trans Ci fib]
-3.4 -7.0 76 -9 -9 по сезону 1028.5 1007.0
00 17.02 ЮЗ 3 20 км 10/0
[Ac und]
-2.1 -6.8 70 -7 -7 по сезону 1026.4 1005.0
03 17.02 З 3 20 км 10/0
[Ac und Cs]
-3.2 -7.5 72 -8 -8 по сезону 1024.2 1002.8
06 17.02 З 3 10 км 9/0
[Ac trans Cc]
-2.8 -6.6 75 -8 -7 по сезону 1022.9 1001.6 -3.5 18
09 17.02 СЗ 3 20 км 8/0
[Ac trans Ci fib]
+0.3 -4.9 68 -4 -1 по сезону 1021.8 1000.7
12 17.02 ЮЗ 3 20 км 4/0
[Ac trans Ci fib]
+4.0 -3.6 58 +1 +3 тепло 1020.0 999.2
15 17.02 З 3 20 км 8/0
[Ac trans]
+1.5 -4.0 67 -3 -3 по сезону 1019.7 998.8
18 17.02 З 2 20 км 6/0
[Ac trans]
-0.7 -4.2 77 -4 -4 по сезону 1020.2 999.1 +4.4
21 17.02 З 1 20 км 8/0
[Ac trans]
-1.7 -4.8 79 -4 -4 по сезону 1019.8 998.6
00 18.02 З 1 20 км 9/0
[Ac trans]
-2.4 -5.3 80 -5 -5 по сезону 1018.7 997.5
03 18.02 З 2 20 км 9/9 600 м
[Sc]
-2.1 -4.9 81 -6 -6 по сезону 1018.2 997.0
06 18.02 З 1 10 км 8/8 570 м
[Sc]
-2.0 -4.5 83 -4 -4 по сезону 1018.7 997.5 -2.5 16
09 18.02 СЗ 2 10 км 9/0
[Ac lent]
+1.5 -1.3 82 -2 -1 по сезону 1018.7 997.8
12 18.02 СЗ 3 10 км 8/0
[Ac As]
+3.1 +0.5 83 -1 0 по сезону 1018.4 997.6
15 18.02 С 2 10 км 10/10 300 м
[St]
+2.4 +0.3 86 -1 -1 по сезону 1019.5 998.6
18 18.02 СЗ 2 4000 м дымка 10/10 180 м
[St]
+1.7 +0.6 92 -2 -2 по сезону 1021.3 1000.4 +3.4
21 18.02 СЗ 1 4000 м дымка 10/10 720 м
[Sc]
+1.5 -0.2 88 -0 -0 тепло 1022.7 1001.7
00 19.02 З 1 4000 м дымка 10/10 800 м
[Sc]
+1.6 +0.2 90 -0 -0 тепло 1023.6 1002.6
03 19.02 З 2 4000 м дымка 10/10 1000 м
[Sc]
+1.4 0.0 90 -2 -2 тепло 1024.2 1003.2
06 19.02 З 3 4000 м дымка 9/9 1080 м
[Sc]
+1.6 -0.0 89 -3 -3 по сезону 1025.1 1004.1 +1.3 14
09 19.02 З 4 10 км 9/5 600 м
[Sc Ac und]
+3.2 -0.3 78 -1 -1 тепло 1025.4 1004.5
12 19.02 СЗ 4 20 км 8/3 1000 м
[Cu hum Ac trans Ci sp]
+4.8 -1.8 62 +1 +2 тепло 1024.4 1003.6
15 19.02 З 3 20 км 3/0
[Ci sp]
+4.3 -0.8 69 +1 +1 тепло 1023.5 1002.7
18 19.02 З 4 10 км 9/9 360 м
[Sc]
+1.0 -1.3 85 -4 -4 по сезону 1023.8 1002.7 +5.6
21 19.02 З 3 10 км 9/9 480 м
[Cb cap]
+1.2 -1.4 83 -3 -3 по сезону 1023.2 1002.2
00 20.02 З 3 4000 м дымка 10/10 800 м
[Sc]
+0.3 -1.4 88 -4 -4 по сезону 1022.8 1001.7
03 20.02 З 3 4000 м дымка 9/5 600 м
[Sc Ac As]
-0.6 -1.8 92 -6 -6 по сезону 1021.6 1000.5
06 20.02 З 2 4000 м дымка ясно -1.1 -2.6 90 -5 -4 по сезону 1021.0 999.8 -1.3 13
09 20.02 З 3 20 км ясно +3.7 -1.6 68 0 +4 тепло 1019.5 998.7
12 20.02 ЮЗ 4 20 км ясно +2.2 -1.8 75 -3 -0 по сезону 1018.1 997.2
15 20.02 ЮЗ 3 10 км 8/8 180 м
[St]
-0.7 -2.2 90 -6 -6 по сезону 1016.0 995.0
18 20.02 ЮЗ 3 4000 м дымка 10/10 150 м
[St]
-0.9 -1.9 93 -6 -6 по сезону 1015.0 994.0 +4.9
21 20.02 ЮЗ 3 4000 м дымка 10/10 180 м
[St]
-1.7 -2.5 94 -7 -7 по сезону 1012.4 991.4
00 21.02 ЮЗ 3 4000 м дымка 5/5 200 м
[St]
-2.1 -3.0 94 -7 -7 по сезону 1009.8 988.8
03 21.02 З 4 4000 м дымка 10/10 360 м
[St]
-1.9 -3.0 92 -8 -8 по сезону 1006.7 985.8
06 21.02 З 6 20 км 10/10 500 м
[Sc]
+0.3 -3.2 77 -6 -6 по сезону 1003.5 982.8 -2.4 9
09 21.02 З 6 4000 м слабый снег 10/8 300 м
[Frnb As op]
+1.3 -0.3 89 -5 -5 по сезону 1001.3 980.7
12 21.02 З 6 4000 м слабая морось {снег, дождь} 10/10 240 м
[St]
+2.1 +1.1 93 -4 -4 по сезону 999.4 978.9
15 21.02 З 5 4000 м дымка {морось} 10/10 210 м
[St]
+2.9 +1.9 93 -3 -3 по сезону 998.9 978.5
18 21.02 З 5 4000 м дымка {морось} 10/8 240 м
[St As op]
+3.2 +1.9 91 -2 -2 по сезону 998.6 978.2 +3.2 1

 

Местоположение метеостанции Киев (город Киев, Украина): широта 50.40 долгота 30.57 высота над уровнем моря 167 м.

В архиве по умолчанию представлена погода в Киеве за последнюю неделю. Архивные данные за месяц целиком и за предыдущие месяцы, начиная с января 2011 года, Вы можете получить, выбрав интересующий диапазон дат из раскрывающегося списка и нажав кнопку "Ввод!".

Внимание! Время в таблицах - всемирное. Для получения местного времени необходимо прибавить поправку, которая в Киеве равна 2 ч.

Смотрите также архив погоды в соседних городах и на ближайших метеорологических станциях:

Погода в Вышгороде (Киевская область, Украина) (21 км)
Погода в Борисполе (Киевская область, Украина) (29 км)
Погода в Барышевке (Киевская область, Украина) (54 км)
Погода в Фастове (Киевская область, Украина) (58 км)
Погода в Остере (Черниговская область, Украина) (65 км)
Погода в Тетереве (Киевская область, Украина) (78 км)
Погода в Белой Церкви (Киевская область, Украина) (79 км)
Погода в Мироновке (Киевская область, Украина) (87 км)
Погода в Яготине (Киевская область, Украина) (90 км)
Погода в Чернобыле (Киевская область, Украина) (101 км)

Пояснения к столбцам:

Ветер - указаны скорость ветра в м/с - средняя за 10 мин, порывы в срок и между сроками (в фигурных скобках) и направление, откуда дует ветер: С - северный, СВ - северо-восточный, В - восточный, ЮВ - юго-восточный, Ю - южный, ЮЗ - юго-западный, З - западный, СЗ - северо-западный.
Видимость - горизонтальная дальность видимости в метрах или километрах. При видимости от 1 до 10 км при отсутствии осадков обычно наблюдается дымка, при ухудшении видимости до 1 км и менее - туман. В сухую погоду видимость может ухудшаться дымом, пылью или мглою.
Явления - указаны атмосферные явления, наблюдавшиеся в срок или в последний час перед сроком; фигурными скобками обозначены явления, наблюдавшиеся между сроками (за 1-3 часа до срока); квадратными скобками обозначены град или гололедные отложения с указанием их диаметра в мм.
Облачность - указаны через наклонную черту общая и нижняя облачность в баллах и высота нижней границы облаков в метрах; квадратными скобками обозначены формы облаков: Ci - перистые, Cs - перисто-слоистые, Cc - перисто-кучевые, Ac - высококучевые, As - высокослоистые, Sc - слоисто-кучевые, Ns - слоисто-дождевые, Cu - кучевые, Cb - кучево-дождевые. Подробнее классификацию облаков см. в Атласе облаков (PDF).
T - Температура воздуха - температура, измеренная на высоте 2 м над землей.
Td - Температура точки росы - температура, при понижении до которой содержащийся в воздухе водяной пар достигнет насыщения.
f - Относительная влажность воздуха - влажноcть воздуха, измеренная на высоте 2 м над землей.
Te - Эффективная температура - температура, которую ощущает одетый по сезону человек в тени. Характеристика душности погоды. При расчете учитывается влияние влажности воздуха и скорости ветра на теплоощущения человека.
Tes - Эффективная температура на солнце - температура, которую ощущает человек, с поправкой на солнечный нагрев. Характеристика знойности погоды. Зависит от высоты солнца над горизонтом, облачности и скорости ветра. Ночью, в пасмурную погоду, а также при ветре 12 м/с и более поправка равна нулю.
P - Атмосферное давление - приведенное к уровню моря атмосферное давление.
Po - Атмосферное давление - измеренное на уровне метеостанции атмосферное давление.
Tmin - Минимальная температура - минимум температуры воздуха на высоте 2 м над землей.
Tmax - Максимальная температура - максимум температуры воздуха на высоте 2 м над землей.
R - Количество осадков - Количество выпавших осадков, мм. При наведении курсора мыши на число - период времени, за который выпало указанное количество осадков.
S - Снежный покров - Высота снежного покрова, см. При наведении курсора мыши на число - состояние снежного покрова и степень покрытия местности в баллах.